Location: Esp�s Alto
(42.4476°N, 0.5876°E)
Time: 15:19:47
(UTC+00:00)

Cosmos 2219 Rocket - Pass Details

Date: 22 October 2019
Orbit: 828 x 846 km, 71.0° (Epoch: 12 November)

Event Time Altitude Azimuth Distance (km) Brightness Sun altitude
Exits shadow 04:03:21 22° 339° (NNW) 1,747 3.7 -25.5°
Drops below altitude 10° 04:06:04 10° 4° (N) 2,444 4.7 -25.0°
Sets 04:08:54 0° 16° (NNE) 3,383 5.6 -24.5°
